Tracking 31027 objects as of 19-Jul-2025
HD Live streaming from Space Station
objects crossing your sky now

ZHUHAI-1 03C

Track ZHUHAI-1 03C now!
10-day predictions


NORAD ID: 44537
Int'l Code: 2019-060D
Perigee: 429.9 km
Apogee: 455.7 km
Inclination: 97.5 °
Period: 93.3 minutes
Semi major axis: 6813 km
RCS: Unknown
Launch date: September 19, 2019
Source: People's Republic of China (PRC)
Launch site: Jiuquan Satellite Launch Center, China (JSC)
Your satellite tracking list
FENGYUN 1C DEB
Track 1 satellite(s)




NASA's NSSDC Master Catalog

Two Line Element Set (TLE):
1 44537U 19060D   25199.88400583  .00022398  00000-0  49702-3 0  9990
2 44537  97.5476 344.3883 0018875  53.2345 307.0632 15.43545965325162
Source of the keplerian elements: AFSPC